CFG4354 LIMC-EDDF

Flight info

Callsign CFG4354
Flight time 1h 7m
Altitude 32000
Route PEPAG DCT ABESI N851 UTAVO DCT ROLSA DCT LADOL T163 EMPAX EMPAX5B
Aircraft A320/M-SDE3FGHIRWY/LB1

Departure

Time 2026-05-07 15:40
Airport Milan Malpensa International Airport (LIMC)

Arrival

Time 2026-05-07 16:48
Airport Frankfurt Main Airport (EDDF)
Time Latitude Longitude Altitude Speed Heading
2026-05-07 14:47 45.62457 8.71755 741 ft 0 kts 259°
2026-05-07 15:25 45.62460 8.71776 741 ft 2 kts 259°
2026-05-07 15:26 45.62463 8.71799 741 ft 2 kts 258°
2026-05-07 15:26 45.62467 8.71822 740 ft 2 kts 256°
2026-05-07 15:26 45.62471 8.71845 740 ft 2 kts 251°
2026-05-07 15:26 45.62475 8.71860 741 ft 2 kts 241°
2026-05-07 15:27 45.62486 8.71877 738 ft 2 kts 174°
2026-05-07 15:27 45.62493 8.71875 738 ft 0 kts 168°
2026-05-07 15:29 45.62493 8.71876 738 ft 0 kts 168°
2026-05-07 15:30 45.62453 8.71887 741 ft 10 kts 169°
2026-05-07 15:30 45.62387 8.71905 741 ft 9 kts 169°
2026-05-07 15:30 45.62350 8.71934 741 ft 5 kts 126°
2026-05-07 15:30 45.62348 8.71978 741 ft 4 kts 81°
2026-05-07 15:31 45.62353 8.72015 740 ft 3 kts 78°
2026-05-07 15:31 45.62357 8.72047 741 ft 5 kts 79°
2026-05-07 15:31 45.62363 8.72093 741 ft 4 kts 79°
2026-05-07 15:31 45.62371 8.72158 741 ft 7 kts 85°
2026-05-07 15:32 45.62352 8.72218 741 ft 9 kts 140°
2026-05-07 15:32 45.62248 8.72253 741 ft 19 kts 168°
2026-05-07 15:32 45.62112 8.72291 741 ft 21 kts 169°
2026-05-07 15:32 45.61966 8.72331 742 ft 22 kts 169°
2026-05-07 15:33 45.61812 8.72374 742 ft 23 kts 169°
2026-05-07 15:33 45.61661 8.72415 742 ft 18 kts 169°
2026-05-07 15:33 45.61536 8.72449 742 ft 19 kts 169°
2026-05-07 15:33 45.61397 8.72489 742 ft 21 kts 169°
2026-05-07 15:34 45.61267 8.72524 741 ft 15 kts 169°
2026-05-07 15:34 45.61167 8.72552 742 ft 15 kts 169°
2026-05-07 15:34 45.61100 8.72580 740 ft 9 kts 147°
2026-05-07 15:34 45.61078 8.72647 742 ft 7 kts 89°
2026-05-07 15:35 45.61085 8.72709 742 ft 6 kts 77°
2026-05-07 15:35 45.61095 8.72786 742 ft 12 kts 79°
2026-05-07 15:35 45.61111 8.72900 742 ft 11 kts 79°
2026-05-07 15:35 45.61124 8.73000 742 ft 10 kts 77°
2026-05-07 15:36 45.61171 8.73088 742 ft 15 kts 34°
2026-05-07 15:36 45.61253 8.73165 741 ft 13 kts 34°
2026-05-07 15:36 45.61324 8.73234 742 ft 12 kts 34°
2026-05-07 15:36 45.61394 8.73271 742 ft 10 kts 360°
2026-05-07 15:37 45.61460 8.73254 741 ft 10 kts 349°
2026-05-07 15:37 45.61535 8.73234 742 ft 11 kts 349°
2026-05-07 15:37 45.61601 8.73239 742 ft 9 kts 30°
2026-05-07 15:37 45.61624 8.73313 742 ft 8 kts 78°
2026-05-07 15:38 45.61634 8.73383 740 ft 7 kts 80°
2026-05-07 15:38 45.61628 8.73445 740 ft 8 kts 113°
2026-05-07 15:38 45.61602 8.73509 742 ft 7 kts 119°
2026-05-07 15:38 45.61586 8.73590 742 ft 9 kts 92°
2026-05-07 15:39 45.61595 8.73671 742 ft 8 kts 79°
2026-05-07 15:39 45.61607 8.73729 740 ft 4 kts 56°
2026-05-07 15:39 45.61630 8.73740 742 ft 3 kts 355°
2026-05-07 15:39 45.61677 8.73724 740 ft 20 kts 348°
2026-05-07 15:40 45.62096 8.73608 742 ft 98 kts 349°
2026-05-07 15:40 45.62981 8.73365 742 ft 158 kts 349°
2026-05-07 15:40 45.64157 8.73052 1149 ft 174 kts 353°
2026-05-07 15:40 45.65376 8.72993 1958 ft 175 kts 360°
2026-05-07 15:41 45.66595 8.72998 2707 ft 174 kts
2026-05-07 15:41 45.67800 8.73139 3382 ft 175 kts 19°
2026-05-07 15:41 45.68809 8.74095 4014 ft 180 kts 50°
2026-05-07 15:41 45.69388 8.75769 4455 ft 199 kts 74°
2026-05-07 15:42 45.69817 8.77749 4962 ft 215 kts 73°
2026-05-07 15:42 45.70277 8.79791 5682 ft 219 kts 72°
2026-05-07 15:42 45.70742 8.81881 6471 ft 226 kts 75°
2026-05-07 15:42 45.71018 8.84212 6890 ft 248 kts 86°
2026-05-07 15:43 45.70976 8.86730 7623 ft 257 kts 97°
2026-05-07 15:43 45.70608 8.89264 8505 ft 262 kts 107°
2026-05-07 15:43 45.69910 8.91699 9408 ft 267 kts 118°
2026-05-07 15:43 45.68883 8.93937 10260 ft 272 kts 127°
2026-05-07 15:44 45.67734 8.96120 11075 ft 277 kts 127°
2026-05-07 15:44 45.66568 8.98346 11895 ft 282 kts 128°
2026-05-07 15:44 45.65468 9.00680 12688 ft 287 kts 118°
2026-05-07 15:44 45.64776 9.03395 13415 ft 296 kts 103°
2026-05-07 15:45 45.64588 9.06439 13697 ft 320 kts 89°
2026-05-07 15:45 45.64628 9.09704 13923 ft 343 kts 89°
2026-05-07 15:45 45.64665 9.13201 14356 ft 357 kts 89°
2026-05-07 15:45 45.64695 9.16779 15012 ft 362 kts 89°
2026-05-07 15:46 45.64733 9.24066 16401 ft 371 kts 89°
2026-05-07 15:46 45.64747 9.27731 17139 ft 375 kts 90°
2026-05-07 15:46 45.64757 9.31484 17843 ft 379 kts 90°
2026-05-07 15:47 45.64768 9.35278 18511 ft 383 kts 90°
2026-05-07 15:47 45.64782 9.39120 19120 ft 387 kts 89°
2026-05-07 15:47 45.64796 9.42983 19720 ft 391 kts 90°
2026-05-07 15:47 45.64808 9.46896 20313 ft 395 kts 90°
2026-05-07 15:48 45.64819 9.50838 20904 ft 399 kts 90°
2026-05-07 15:48 45.64827 9.54830 21487 ft 403 kts 90°
2026-05-07 15:48 45.64832 9.58863 21985 ft 408 kts 90°
2026-05-07 15:48 45.64927 9.62935 22549 ft 412 kts 80°
2026-05-07 15:49 45.65879 9.66776 23092 ft 412 kts 56°
2026-05-07 15:49 45.67790 9.69772 23625 ft 408 kts 32°
2026-05-07 15:49 45.70333 9.71439 24079 ft 401 kts
2026-05-07 15:49 45.73043 9.71533 24524 ft 393 kts 344°
2026-05-07 15:50 45.75527 9.70071 24959 ft 384 kts 320°
2026-05-07 15:50 45.77326 9.67325 25424 ft 378 kts 297°
2026-05-07 15:50 45.78146 9.63792 25874 ft 375 kts 276°
2026-05-07 15:50 45.78370 9.60060 26341 ft 377 kts 274°
2026-05-07 15:51 45.78577 9.56301 26824 ft 378 kts 274°
2026-05-07 15:51 45.78784 9.52539 27295 ft 379 kts 274°
2026-05-07 15:51 45.79284 9.48830 27740 ft 383 kts 288°
2026-05-07 15:51 45.80240 9.45256 28212 ft 385 kts 289°
2026-05-07 15:52 45.81229 9.41680 28689 ft 386 kts 290°
2026-05-07 15:52 45.82524 9.38271 29105 ft 392 kts 300°
2026-05-07 15:52 45.84061 9.35089 29523 ft 395 kts 302°
2026-05-07 15:52 45.85695 9.31902 29935 ft 397 kts 303°
2026-05-07 15:53 45.87367 9.28724 30283 ft 399 kts 303°
2026-05-07 15:53 45.89044 9.25541 30623 ft 401 kts 303°
2026-05-07 15:53 45.90722 9.22323 30980 ft 402 kts 302°
2026-05-07 15:53 45.92384 9.19084 31297 ft 404 kts 302°
2026-05-07 15:54 45.94038 9.15815 31601 ft 406 kts 302°
2026-05-07 15:54 45.95794 9.12609 31906 ft 410 kts 308°
2026-05-07 15:54 45.97902 9.09859 31967 ft 407 kts 317°
2026-05-07 15:54 46.00266 9.07728 31973 ft 398 kts 328°
2026-05-07 15:55 46.02860 9.06440 31973 ft 402 kts 342°
2026-05-07 15:55 46.08441 9.05439 31972 ft 403 kts 347°
2026-05-07 15:56 46.14018 9.04582 31977 ft 402 kts 347°
2026-05-07 15:56 46.19594 9.03752 31976 ft 403 kts 348°
2026-05-07 15:57 46.25183 9.03020 31978 ft 403 kts 348°
2026-05-07 15:57 46.30782 9.02300 31984 ft 403 kts 348°
2026-05-07 15:58 46.36344 9.01568 31977 ft 403 kts 348°
2026-05-07 15:58 46.41922 9.00811 31986 ft 403 kts 348°
2026-05-07 15:59 46.47511 9.00050 31995 ft 402 kts 349°
2026-05-07 15:59 46.53084 8.99303 32002 ft 402 kts 349°
2026-05-07 16:00 46.58624 8.98558 31998 ft 402 kts 349°
2026-05-07 16:00 46.64190 8.97806 32004 ft 401 kts 349°
2026-05-07 16:01 46.69757 8.97041 32014 ft 401 kts 349°
2026-05-07 16:01 46.75298 8.96285 32009 ft 402 kts 349°
2026-05-07 16:02 46.80861 8.95539 32012 ft 401 kts 349°
2026-05-07 16:02 46.86429 8.94786 32017 ft 403 kts 349°
2026-05-07 16:03 46.91995 8.94020 32007 ft 401 kts 349°
2026-05-07 16:03 46.97560 8.93258 31999 ft 402 kts 349°
2026-05-07 16:04 47.03099 8.92494 32015 ft 402 kts 349°
2026-05-07 16:04 47.08678 8.91720 32008 ft 403 kts 349°
2026-05-07 16:05 47.14267 8.90950 32011 ft 403 kts 350°
2026-05-07 16:05 47.19854 8.90184 32017 ft 404 kts 350°
2026-05-07 16:06 47.25457 8.89417 32018 ft 404 kts 350°
2026-05-07 16:06 47.31097 8.89074 32018 ft 409 kts 358°
2026-05-07 16:07 47.36788 8.89485 32016 ft 409 kts 358°
2026-05-07 16:07 47.42450 8.89895 32015 ft 410 kts 359°
2026-05-07 16:08 47.48165 8.90305 32013 ft 410 kts 359°
2026-05-07 16:08 47.53871 8.90716 32013 ft 411 kts 359°
2026-05-07 16:09 47.59584 8.91133 32017 ft 411 kts 359°
2026-05-07 16:09 47.65271 8.91552 32017 ft 412 kts 359°
2026-05-07 16:10 47.70995 8.91968 32013 ft 412 kts 359°
2026-05-07 16:10 47.76722 8.92386 32010 ft 412 kts 359°
2026-05-07 16:11 47.82466 8.92803 32010 ft 413 kts 359°
2026-05-07 16:11 47.88205 8.93232 32010 ft 413 kts 359°
2026-05-07 16:12 47.93948 8.93663 32008 ft 413 kts 359°
2026-05-07 16:12 47.99694 8.94082 32006 ft 413 kts 359°
2026-05-07 16:13 48.05407 8.94499 32008 ft 414 kts 359°
2026-05-07 16:13 48.11159 8.94921 32007 ft 414 kts 360°
2026-05-07 16:14 48.16913 8.95357 32008 ft 414 kts
2026-05-07 16:14 48.22657 8.96084 32011 ft 415 kts
2026-05-07 16:15 48.28398 8.97046 32015 ft 415 kts
2026-05-07 16:15 48.34145 8.97991 31808 ft 414 kts
2026-05-07 16:15 48.37005 8.98437 31553 ft 411 kts
2026-05-07 16:16 48.38886 8.98726 31382 ft 410 kts
2026-05-07 16:16 48.41715 8.99153 31139 ft 408 kts
2026-05-07 16:16 48.44523 8.99575 30847 ft 403 kts
2026-05-07 16:16 48.48208 9.00131 30249 ft 400 kts
2026-05-07 16:17 48.50967 9.00554 29757 ft 397 kts
2026-05-07 16:17 48.52819 9.00838 29466 ft 394 kts
2026-05-07 16:17 48.55529 9.01253 29040 ft 390 kts
2026-05-07 16:17 48.58215 9.01664 28618 ft 386 kts
2026-05-07 16:18 48.60868 9.02070 28210 ft 382 kts
2026-05-07 16:18 48.63504 9.02487 27794 ft 378 kts
2026-05-07 16:18 48.66074 9.02999 27375 ft 375 kts
2026-05-07 16:18 48.68643 9.03605 26958 ft 372 kts
2026-05-07 16:19 48.71190 9.04251 26522 ft 370 kts
2026-05-07 16:19 48.73719 9.04899 26086 ft 367 kts
2026-05-07 16:19 48.76229 9.05537 25638 ft 365 kts
2026-05-07 16:19 48.78730 9.06161 25186 ft 363 kts
2026-05-07 16:20 48.81219 9.06765 24727 ft 362 kts
2026-05-07 16:20 48.83708 9.07359 24254 ft 362 kts
2026-05-07 16:20 48.86191 9.07946 23781 ft 361 kts
2026-05-07 16:20 48.88670 9.08522 23261 ft 360 kts
2026-05-07 16:21 48.91151 9.08982 22794 ft 357 kts
2026-05-07 16:21 48.93616 9.09341 22337 ft 354 kts
2026-05-07 16:21 48.96070 9.09656 21886 ft 352 kts
2026-05-07 16:21 48.98503 9.09958 21447 ft 350 kts
2026-05-07 16:22 49.00926 9.10267 21006 ft 348 kts
2026-05-07 16:22 49.03305 9.10585 20576 ft 347 kts
2026-05-07 16:22 49.05734 9.10919 20139 ft 346 kts
2026-05-07 16:22 49.08095 9.11252 19707 ft 345 kts
2026-05-07 16:23 49.10480 9.11593 19287 ft 344 kts
2026-05-07 16:23 49.12861 9.11940 18853 ft 343 kts
2026-05-07 16:23 49.15236 9.12282 18428 ft 343 kts
2026-05-07 16:23 49.17612 9.12618 17960 ft 342 kts
2026-05-07 16:24 49.19972 9.12952 17540 ft 340 kts
2026-05-07 16:24 49.22324 9.13287 17117 ft 338 kts
2026-05-07 16:24 49.24660 9.13621 16694 ft 336 kts
2026-05-07 16:24 49.26986 9.13962 16273 ft 335 kts
2026-05-07 16:25 49.29283 9.14479 15853 ft 335 kts 11°
2026-05-07 16:25 49.31560 9.15284 15382 ft 335 kts 11°
2026-05-07 16:25 49.33838 9.16093 14922 ft 336 kts 12°
2026-05-07 16:25 49.36118 9.16903 14463 ft 336 kts 12°
2026-05-07 16:26 49.38359 9.17701 13998 ft 325 kts 12°
2026-05-07 16:26 49.40518 9.18471 13537 ft 313 kts 11°
2026-05-07 16:26 49.42614 9.19217 13098 ft 307 kts 11°
2026-05-07 16:26 49.44693 9.19955 12689 ft 306 kts 11°
2026-05-07 16:27 49.46773 9.20694 12269 ft 306 kts 11°
2026-05-07 16:27 49.48853 9.21339 11916 ft 302 kts
2026-05-07 16:27 49.50884 9.21021 11788 ft 288 kts 346°
2026-05-07 16:27 49.52793 9.20332 11537 ft 283 kts 344°
2026-05-07 16:28 49.54722 9.19595 11208 ft 281 kts 344°
2026-05-07 16:28 49.56589 9.18878 10895 ft 280 kts 344°
2026-05-07 16:28 49.58481 9.18152 10666 ft 279 kts 344°
2026-05-07 16:28 49.60359 9.17432 10389 ft 278 kts 344°
2026-05-07 16:29 49.62234 9.16713 10059 ft 277 kts 344°
2026-05-07 16:29 49.64100 9.16000 9685 ft 276 kts 344°
2026-05-07 16:29 49.65960 9.15289 9323 ft 274 kts 344°
2026-05-07 16:29 49.67807 9.14586 8960 ft 272 kts 344°
2026-05-07 16:30 49.69641 9.13886 8586 ft 271 kts 344°
2026-05-07 16:30 49.71468 9.13189 8244 ft 269 kts 344°
2026-05-07 16:30 49.73282 9.12504 7863 ft 268 kts 344°
2026-05-07 16:30 49.75071 9.11832 7649 ft 259 kts 344°
2026-05-07 16:31 49.76783 9.11192 7515 ft 248 kts 344°
2026-05-07 16:31 49.78442 9.10577 7256 ft 243 kts 344°
2026-05-07 16:31 49.80080 9.09974 7068 ft 241 kts 344°
2026-05-07 16:31 49.81710 9.09369 7055 ft 241 kts 344°
2026-05-07 16:32 49.83343 9.08767 6830 ft 240 kts 344°
2026-05-07 16:32 49.84941 9.08056 6453 ft 237 kts 331°
2026-05-07 16:32 49.86209 9.06533 6308 ft 231 kts 308°
2026-05-07 16:32 49.87251 9.04627 6181 ft 233 kts 308°
2026-05-07 16:33 49.88293 9.02708 6057 ft 233 kts 308°
2026-05-07 16:33 49.89336 9.00788 5934 ft 232 kts 308°
2026-05-07 16:33 49.90376 8.98872 5813 ft 232 kts 308°
2026-05-07 16:33 49.91414 8.96959 5693 ft 231 kts 308°
2026-05-07 16:34 49.92504 8.95126 5569 ft 232 kts 316°
2026-05-07 16:34 49.93790 8.93609 5449 ft 233 kts 326°
2026-05-07 16:34 49.95236 8.92464 5331 ft 235 kts 336°
2026-05-07 16:34 49.96802 8.91725 5205 ft 237 kts 346°
2026-05-07 16:35 49.98439 8.91436 5081 ft 238 kts 356°
2026-05-07 16:35 50.00068 8.91642 4959 ft 240 kts 15°
2026-05-07 16:35 50.01444 8.93082 4773 ft 245 kts 47°
2026-05-07 16:35 50.02619 8.94971 4591 ft 241 kts 38°
2026-05-07 16:36 50.03808 8.96819 4512 ft 243 kts 47°
2026-05-07 16:36 50.04782 8.98969 4461 ft 244 kts 62°
2026-05-07 16:36 50.05459 9.01393 4393 ft 244 kts 69°
2026-05-07 16:36 50.06017 9.03896 4332 ft 244 kts 71°
2026-05-07 16:37 50.06545 9.06409 4265 ft 244 kts 71°
2026-05-07 16:37 50.07077 9.08915 4199 ft 244 kts 71°
2026-05-07 16:37 50.07622 9.11414 4133 ft 244 kts 71°
2026-05-07 16:37 50.08180 9.13902 4073 ft 243 kts 70°
2026-05-07 16:38 50.08746 9.16390 4000 ft 244 kts 70°
2026-05-07 16:38 50.09330 9.18855 4064 ft 243 kts 64°
2026-05-07 16:38 50.10372 9.20844 4030 ft 237 kts 31°
2026-05-07 16:38 50.11900 9.21650 4013 ft 233 kts 358°
2026-05-07 16:39 50.13428 9.21058 4011 ft 226 kts 325°
2026-05-07 16:39 50.14463 9.19294 4016 ft 221 kts 293°
2026-05-07 16:39 50.14975 9.17064 3833 ft 222 kts 285°
2026-05-07 16:39 50.15394 9.14750 3831 ft 222 kts 284°
2026-05-07 16:40 50.15804 9.12429 3833 ft 222 kts 284°
2026-05-07 16:40 50.15981 9.10053 3831 ft 221 kts 263°
2026-05-07 16:40 50.15569 9.07750 3838 ft 222 kts 250°
2026-05-07 16:40 50.15038 9.05489 3850 ft 222 kts 250°
2026-05-07 16:41 50.14508 9.03224 3858 ft 222 kts 250°
2026-05-07 16:41 50.13981 9.00963 3870 ft 222 kts 250°
2026-05-07 16:41 50.13471 8.98780 3874 ft 206 kts 250°
2026-05-07 16:41 50.12987 8.96713 3890 ft 202 kts 250°
2026-05-07 16:42 50.12507 8.94662 3902 ft 201 kts 250°
2026-05-07 16:42 50.12028 8.92614 3903 ft 200 kts 250°
2026-05-07 16:42 50.11548 8.90571 3916 ft 201 kts 250°
2026-05-07 16:42 50.11068 8.88524 3924 ft 201 kts 250°
2026-05-07 16:43 50.10588 8.86482 3936 ft 201 kts 250°
2026-05-07 16:43 50.10108 8.84441 3900 ft 201 kts 250°
2026-05-07 16:43 50.09631 8.82416 3710 ft 197 kts 250°
2026-05-07 16:43 50.09166 8.80442 3501 ft 190 kts 250°
2026-05-07 16:44 50.08723 8.78567 3258 ft 179 kts 250°
2026-05-07 16:44 50.08304 8.76791 3009 ft 172 kts 251°
2026-05-07 16:44 50.07895 8.75059 2786 ft 169 kts 251°
2026-05-07 16:44 50.07489 8.73341 2581 ft 169 kts 252°
2026-05-07 16:45 50.07080 8.71616 2361 ft 169 kts 252°
2026-05-07 16:45 50.06684 8.69947 2161 ft 156 kts 253°
2026-05-07 16:45 50.06324 8.68434 1941 ft 143 kts 253°
2026-05-07 16:45 50.05990 8.67022 1749 ft 136 kts 254°
2026-05-07 16:46 50.05667 8.65660 1547 ft 132 kts 253°
2026-05-07 16:46 50.05355 8.64331 1311 ft 130 kts 254°
2026-05-07 16:46 50.05043 8.63010 1109 ft 130 kts 252°
2026-05-07 16:46 50.04732 8.61686 902 ft 130 kts 251°
2026-05-07 16:47 50.04417 8.60367 671 ft 130 kts 250°
2026-05-07 16:47 50.04102 8.59052 452 ft 129 kts 248°
2026-05-07 16:47 50.03791 8.57768 355 ft 118 kts 249°
2026-05-07 16:47 50.03567 8.56817 347 ft 69 kts 249°
2026-05-07 16:48 50.03454 8.56344 347 ft 30 kts 251°
2026-05-07 16:48 50.03433 8.56122 349 ft 17 kts 277°
2026-05-07 16:48 50.03453 8.55931 346 ft 19 kts 279°
2026-05-07 16:48 50.03465 8.55820 352 ft 5 kts 278°
2026-05-07 16:49 50.03470 8.55770 349 ft 4 kts 278°
2026-05-07 16:49 50.03475 8.55713 346 ft 9 kts 278°
2026-05-07 16:49 50.03485 8.55615 346 ft 9 kts 279°
2026-05-07 16:49 50.03493 8.55526 350 ft 8 kts 271°
2026-05-07 16:50 50.03490 8.55472 353 ft 8 kts 261°
2026-05-07 16:50 50.03457 8.55322 348 ft 13 kts 249°
2026-05-07 16:50 50.03422 8.55175 347 ft 16 kts 250°
2026-05-07 16:50 50.03380 8.55001 348 ft 18 kts 249°
2026-05-07 16:51 50.03334 8.54812 346 ft 16 kts 250°
2026-05-07 16:51 50.03293 8.54635 349 ft 14 kts 250°
2026-05-07 16:51 50.03281 8.54518 350 ft 10 kts 296°
2026-05-07 16:51 50.03338 8.54466 348 ft 9 kts 339°
2026-05-07 16:52 50.03396 8.54432 346 ft 8 kts 339°
2026-05-07 16:52 50.03449 8.54402 349 ft 8 kts 339°
2026-05-07 16:52 50.03497 8.54375 356 ft 7 kts 340°
2026-05-07 16:52 50.03540 8.54350 352 ft 6 kts 340°
2026-05-07 16:53 50.03580 8.54327 346 ft 6 kts 340°
2026-05-07 16:53 50.03617 8.54309 347 ft 5 kts 348°
2026-05-07 16:53 50.03655 8.54329 352 ft 8 kts 39°
2026-05-07 16:53 50.03680 8.54404 353 ft 7 kts 67°
2026-05-07 16:54 50.03699 8.54486 353 ft 10 kts 70°
2026-05-07 16:54 50.03723 8.54587 355 ft 10 kts 70°
2026-05-07 16:54 50.03755 8.54721 350 ft 16 kts 69°
2026-05-07 16:54 50.03792 8.54874 347 ft 14 kts 69°
2026-05-07 16:55 50.03825 8.55014 350 ft 13 kts 69°
2026-05-07 16:55 50.03856 8.55144 354 ft 12 kts 70°
2026-05-07 16:55 50.03884 8.55262 352 ft 11 kts 70°
2026-05-07 16:55 50.03910 8.55373 351 ft 10 kts 70°
2026-05-07 16:56 50.03934 8.55472 346 ft 9 kts 70°
2026-05-07 16:56 50.03955 8.55559 353 ft 8 kts 70°
2026-05-07 16:56 50.03996 8.55731 355 ft 16 kts 70°
2026-05-07 16:57 50.04040 8.55919 349 ft 20 kts 69°
2026-05-07 16:57 50.04093 8.56132 347 ft 22 kts 70°
2026-05-07 16:57 50.04145 8.56357 352 ft 21 kts 70°
2026-05-07 16:57 50.04195 8.56566 346 ft 17 kts 69°
2026-05-07 16:58 50.04231 8.56715 349 ft 12 kts 70°
2026-05-07 16:58 50.04271 8.56801 348 ft 9 kts 28°
2026-05-07 16:58 50.04332 8.56823 346 ft 9 kts 11°
2026-05-07 16:58 50.04389 8.56840 353 ft 8 kts 11°
2026-05-07 16:59 50.04433 8.56852 350 ft 6 kts 10°
2026-05-07 16:59 50.04464 8.56886 352 ft 5 kts 54°